Total_Precipitation_Accumulation
1.19 1.31 1.91 2.56 2.86 2.25 1.80 1.39 1.05 0.97 0.90 0.63 0.51 0.52 0.73 1.00 1.32 1.58 1.34 1.13 0.86 0.72 0.72 1.06 1.41 1.26 1.11 1.02 1.06 1.15 1.19 1.28 1.13 1.03 0.90 0.75 0.65 0.64 0.63 0.54 0.51 0.55 0.50 0.45 0.49 0.58 0.60 0.63 0.64
1.09 1.91 2.67 3.27 2.75 1.91 1.74 1.41 1.21 0.95 0.67 0.51 0.40 0.41 0.55 0.51 0.48 0.79 1.40 1.40 0.85 0.67 0.70 0.94 1.40 1.27 1.22 1.20 1.21 1.20 1.22 1.31 1.17 1.02 0.87 0.74 0.70 0.70 0.71 0.79 0.82 0.70 0.53 0.48 0.48 0.59 0.63 0.60 0.65
1.34 2.51 3.47 3.23 2.19 1.75 1.83 1.45 1.07 0.72 0.49 0.47 0.45 0.41 0.54 0.64 0.62 1.01 1.47 1.17 0.84 0.68 0.76 1.10 1.40 1.23 1.17 1.21 1.29 1.25 1.30 1.28 1.16 1.00 0.79 0.73 0.76 0.86 0.94 0.97 0.88 0.69 0.57 0.53 0.54 0.61 0.65 0.60 0.57
1.75 2.88 3.01 2.38 2.01 1.66 1.46 1.20 0.84 0.77 0.58 0.41 0.41 0.50 0.49 0.63 0.71 0.97 1.04 0.89 0.85 0.80 0.73 0.96 1.25 1.20 1.16 1.21 1.24 1.20 1.20 1.24 1.20 0.98 0.80 0.76 0.76 0.78 0.85 0.93 0.85 0.68 0.59 0.55 0.61 0.66 0.67 0.63 0.59
2.21 2.70 2.59 2.17 1.94 1.57 1.16 0.95 0.80 0.80 0.73 0.49 0.39 0.62 0.77 0.92 0.93 0.95 0.99 0.98 0.83 0.77 0.71 0.80 1.07 1.05 1.02 1.10 1.22 1.24 1.23 1.23 1.16 0.95 0.84 0.84 0.81 0.75 0.81 0.83 0.78 0.65 0.58 0.58 0.65 0.68 0.72 0.67 0.63
2.48 2.41 2.52 2.41 2.16 1.74 1.35 1.03 0.82 0.74 0.67 0.51 0.49 0.66 0.96 1.29 1.26 1.19 1.00 1.02 0.93 0.82 0.71 0.69 0.94 0.99 0.93 0.96 1.03 1.09 1.13 1.16 1.11 0.89 0.81 0.79 0.79 0.76 0.76 0.78 0.77 0.68 0.69 0.69 0.68 0.66 0.70 0.72 0.67
2.39 2.24 2.18 2.04 2.20 2.20 1.64 1.03 0.93 0.77 0.72 0.59 0.50 0.75 1.00 1.38 1.18 1.21 1.13 1.05 1.08 0.92 0.79 0.69 0.76 0.82 0.93 1.00 1.02 1.03 1.06 1.09 1.10 0.94 0.85 0.82 0.74 0.66 0.65 0.67 0.69 0.71 0.78 0.75 0.69 0.64 0.63 0.67 0.68
1.98 1.87 1.68 1.77 2.05 2.16 1.45 0.86 0.70 0.73 0.67 0.43 0.47 0.71 0.96 1.11 1.07 1.22 1.20 1.07 1.02 0.94 0.84 0.70 0.74 0.81 0.78 0.85 1.06 1.12 1.15 1.17 1.17 1.01 0.89 0.84 0.70 0.62 0.62 0.56 0.61 0.68 0.81 0.89 0.82 0.74 0.70 0.69 0.73
1.84 1.90 1.88 2.04 1.92 1.74 1.16 0.93 0.77 0.66 0.62 0.50 0.44 0.52 0.76 0.80 0.93 1.14 1.20 1.12 1.00 0.88 0.78 0.69 0.72 0.83 0.87 0.83 0.93 1.21 1.26 1.28 1.22 1.07 0.96 0.85 0.65 0.57 0.60 0.56 0.73 0.76 0.80 0.88 0.91 0.91 0.86 0.80 0.74
1.88 1.97 1.97 1.73 1.32 1.19 0.99 0.89 0.82 0.71 0.72 0.63 0.54 0.60 0.80 0.86 0.93 1.01 1.01 0.93 0.89 0.88 0.77 0.66 0.65 0.67 0.74 0.78 0.90 1.06 1.04 1.05 1.03 1.17 1.07 0.94 0.89 0.77 0.50 0.56 0.78 0.93 0.96 0.93 0.90 1.00 0.88 0.71 0.55
1.48 1.54 1.29 1.29 1.00 0.85 0.86 0.80 0.73 0.80 0.84 0.58 0.58 0.68 0.82 0.89 0.90 0.96 0.94 0.83 0.80 0.80 0.75 0.62 0.54 0.50 0.53 0.66 0.83 0.92 1.03 1.12 1.08 1.04 1.04 1.02 0.89 0.71 0.58 0.63 0.65 0.71 0.78 0.71 0.75 0.74 0.59 0.52 0.54
1.26 1.10 0.91 0.99 0.82 0.84 0.85 0.71 0.65 0.68 0.73 0.53 0.50 0.61 0.77 0.80 0.84 0.87 0.82 0.79 0.70 0.69 0.71 0.64 0.48 0.42 0.40 0.47 0.56 0.67 0.80 0.92 0.96 0.82 0.77 0.85 0.87 0.76 0.63 0.64 0.63 0.63 0.68 0.76 0.79 0.78 0.69 0.64 0.62
1.39 1.15 0.94 0.89 0.85 0.79 0.76 0.71 0.64 0.62 0.58 0.57 0.58 0.69 0.74 0.80 0.84 0.85 0.75 0.71 0.65 0.66 0.68 0.63 0.51 0.47 0.41 0.43 0.44 0.45 0.64 0.81 0.91 0.93 0.80 0.77 0.79 0.77 0.71 0.60 0.62 0.57 0.60 0.67 0.71 0.75 0.76 0.81 0.77
1.19 1.06 1.01 0.98 0.89 0.73 0.75 0.74 0.63 0.71 0.64 0.64 0.60 0.64 0.70 0.77 0.77 0.71 0.64 0.58 0.53 0.53 0.64 0.63 0.61 0.60 0.52 0.43 0.43 0.44 0.52 0.64 0.72 0.87 0.88 0.83 0.75 0.71 0.74 0.69 0.70 0.71 0.69 0.69 0.69 0.69 0.80 0.84 0.83
0.91 1.07 1.09 0.99 0.89 0.80 0.76 0.88 0.73 0.77 0.74 0.75 0.67 0.58 0.63 0.66 0.64 0.60 0.53 0.49 0.49 0.49 0.52 0.53 0.55 0.63 0.61 0.58 0.55 0.53 0.61 0.63 0.70 0.76 0.77 0.84 0.75 0.68 0.74 0.77 0.78 0.79 0.80 0.79 0.81 0.81 0.88 0.86 0.88
0.99 1.22 1.40 1.12 0.96 0.93 0.96 1.03 0.85 0.89 0.84 0.81 0.73 0.65 0.58 0.60 0.60 0.58 0.53 0.44 0.45 0.44 0.44 0.49 0.47 0.56 0.65 0.70 0.72 0.74 0.76 0.79 0.84 0.82 0.78 0.78 0.73 0.71 0.80 0.82 0.86 0.92 0.84 0.81 0.88 0.93 0.99 0.96 0.99
1.23 1.21 1.19 1.13 0.91 0.89 0.96 0.94 0.84 0.94 0.88 0.76 0.67 0.61 0.52 0.52 0.56 0.54 0.50 0.43 0.39 0.40 0.43 0.49 0.51 0.57 0.64 0.69 0.79 0.88 0.94 1.02 1.14 1.10 1.06 1.00 0.88 0.89 0.96 1.01 1.04 1.06 1.08 1.00 0.90 0.92 1.00 1.10 1.13
1.18 0.88 0.81 0.86 0.85 0.79 0.86 0.79 0.76 0.87 0.77 0.70 0.60 0.52 0.44 0.44 0.49 0.50 0.51 0.45 0.43 0.41 0.44 0.49 0.57 0.65 0.75 0.89 1.10 1.30 1.38 1.56 1.76 1.70 1.55 1.36 1.20 1.17 1.27 1.25 1.21 1.27 1.36 1.38 1.18 1.22 1.18 1.14 1.22
0.73 0.65 0.66 0.63 0.61 0.65 0.65 0.64 0.66 0.67 0.64 0.55 0.47 0.43 0.40 0.35 0.38 0.41 0.44 0.42 0.35 0.33 0.37 0.43 0.49 0.59 0.72 0.92 1.22 1.63 1.85 1.98 2.00 2.02 1.91 1.70 1.49 1.50 1.67 1.64 1.62 1.63 1.61 1.57 1.51 1.64 1.59 1.33 1.25
0.61 0.62 0.61 0.58 0.55 0.55 0.49 0.47 0.50 0.49 0.42 0.37 0.36 0.34 0.34 0.31 0.32 0.29 0.31 0.32 0.27 0.23 0.23 0.33 0.40 0.49 0.64 0.92 1.22 1.55 1.91 1.98 2.00 2.01 1.97 1.85 1.72 1.73 1.77 1.98 2.08 2.05 2.15 2.12 1.94 2.07 2.07 1.71 1.48
0.56 0.60 0.57 0.59 0.60 0.54 0.46 0.44 0.47 0.42 0.34 0.30 0.29 0.28 0.30 0.26 0.28 0.27 0.26 0.26 0.24 0.21 0.18 0.24 0.29 0.43 0.73 1.07 1.39 1.58 1.86 1.97 2.03 1.99 2.01 2.02 1.98 1.89 1.90 2.02 2.19 2.21 2.28 2.36 2.43 2.38 2.47 2.25 1.87
0.58 0.42 0.37 0.40 0.54 0.58 0.46 0.52 0.45 0.38 0.40 0.36 0.31 0.31 0.32 0.31 0.27 0.26 0.27 0.24 0.20 0.17 0.16 0.19 0.26 0.45 0.79 1.14 1.39 1.63 1.98 2.08 2.05 2.08 2.08 2.09 2.11 2.07 2.15 2.17 2.28 2.31 2.32 2.41 2.52 2.48 2.61 2.65 2.27
0.44 0.34 0.33 0.34 0.43 0.47 0.35 0.36 0.39 0.37 0.43 0.45 0.37 0.37 0.35 0.31 0.25 0.23 0.22 0.22 0.20 0.18 0.18 0.23 0.37 0.57 0.83 1.04 1.30 1.66 1.91 2.03 2.17 2.10 2.09 2.10 2.16 2.18 2.22 2.28 2.45 2.44 2.41 2.39 2.59 2.64 2.73 2.65 2.56
0.30 0.36 0.38 0.37 0.40 0.43 0.24 0.30 0.41 0.37 0.34 0.36 0.35 0.32 0.31 0.29 0.26 0.26 0.24 0.23 0.23 0.25 0.30 0.37 0.52 0.67 0.89 1.08 1.29 1.48 1.73 1.86 1.99 2.09 2.04 2.04 2.12 2.22 2.12 2.03 2.17 2.24 2.27 2.26 2.45 2.62 2.74 2.73 2.75
0.28 0.48 0.63 0.59 0.58 0.46 0.23 0.32 0.45 0.34 0.27 0.27 0.29 0.28 0.28 0.31 0.33 0.36 0.37 0.40 0.46 0.49 0.52 0.60 0.69 0.80 0.92 1.02 1.14 1.21 1.38 1.53 1.57 1.73 1.82 1.95 1.97 2.04 2.09 1.97 1.96 1.99 1.94 1.99 2.11 2.17 2.24 2.39 2.54
0.24 0.37 0.59 0.62 0.52 0.43 0.34 0.50 0.52 0.35 0.29 0.29 0.29 0.33 0.35 0.43 0.49 0.59 0.66 0.74 0.80 0.79 0.77 0.84 0.90 0.89 0.88 0.93 1.00 1.03 1.10 1.19 1.25 1.29 1.33 1.51 1.68 1.73 1.82 1.81 1.76 1.80 1.84 1.85 1.93 1.94 1.95 1.98 2.05
0.21 0.27 0.34 0.43 0.35 0.35 0.36 0.52 0.51 0.38 0.37 0.36 0.37 0.42 0.50 0.68 0.78 0.87 0.95 0.97 0.96 0.93 0.88 0.89 0.93 0.91 0.89 0.90 0.89 0.85 0.84 0.91 1.01 1.02 1.09 1.17 1.27 1.28 1.35 1.45 1.52 1.61 1.66 1.72 1.86 1.93 1.92 1.87 1.85
0.18 0.28 0.38 0.58 0.65 0.57 0.48 0.60 0.62 0.52 0.44 0.41 0.46 0.56 0.73 1.00 1.13 1.25 1.33 1.24 1.14 1.14 1.17 1.05 0.96 0.90 0.86 0.86 0.86 0.79 0.76 0.81 0.85 0.84 0.91 0.90 0.92 0.94 1.00 1.11 1.28 1.50 1.63 1.67 1.74 1.79 1.87 1.91 1.86
0.20 0.30 0.42 0.64 0.70 0.85 0.93 1.00 0.79 0.66 0.63 0.71 0.81 0.89 1.11 1.38 1.53 1.63 1.63 1.52 1.31 1.17 1.16 1.08 0.97 0.85 0.75 0.74 0.79 0.79 0.74 0.76 0.81 0.80 0.75 0.68 0.72 0.79 0.91 0.95 1.09 1.25 1.43 1.61 1.76 1.78 1.78 1.81 1.79
0.31 0.46 0.63 1.00 0.97 0.86 1.05 1.21 0.91 0.75 0.76 0.79 0.86 0.99 1.21 1.33 1.40 1.45 1.40 1.38 1.25 1.16 1.07 1.00 0.88 0.74 0.69 0.73 0.75 0.77 0.69 0.64 0.68 0.69 0.70 0.61 0.58 0.62 0.72 0.85 1.05 1.16 1.25 1.30 1.38 1.46 1.51 1.54 1.58